[[{"header":{"parameterUnit":"m.s-1","parameterCategory":1,"la1":30.2991,"la2":30.254,"lo1":-89.0895,"lo2":-89.0444,"dx":0.0017,"dy":0.0017,"nx":28,"ny":28,"refTime":"2022-11-15T09:00:00:Z","depth":0,"parameterNumber":2,"parameterNumberName":"U-component_of_WINDS"},"data":[0,0,0,0,0,0,0,0,0,0,0,0,0,0,0,0,0,0,0,0,0,0,0,0,0,0,0,0,0,0,0,0,0,0,0,0,0,0,0,0,0,0,0,0,0,0,0,0,0,0,0,0,0,0,0,0,0,0,5.1607,5.1608,0,5.1703,5.1704,5.1705,5.164,5.1637,5.1634,5.1632,5.1728,5.1733,5.1739,0,0,0,0,0,0,0,0,0,0,0,0,0,5.1368,5.1373,5.1607,5.1608,5.1609,5.1703,5.1704,5.1705,5.1641,5.1637,5.1634,5.163,5.1727,5.1733,5.1739,0,0,0,0,0,0,0,0,0,0,0,0,0,5.1469,5.1374,5.1607,5.1588,5.1588,5.1702,5.1704,5.1706,5.1642,5.1637,5.1633,5.1629,5.1724,5.1732,5.174,5.1877,0,0,5.1764,5.1768,0,0,0,0,0,0,0,0,5.1463,5.1478,5.159,5.159,5.1589,5.1655,5.1655,5.1763,5.1643,5.1621,5.1632,5.1626,5.1707,5.1716,5.1744,5.1882,5.1886,5.1765,5.177,5.1773,5.1776,0,0,0,0,0,0,0,5.1456,5.1473,5.1645,5.1592,5.1591,5.1576,5.1585,5.1675,5.1688,5.1623,5.1618,5.1631,5.1706,5.1737,5.1746,5.1888,5.1765,5.1772,5.1777,5.178,5.2146,5.2151,0,0,0,0,0,0,5.1451,5.1468,5.1642,5.1647,5.1514,5.1583,5.1594,5.1638,5.1687,5.169,5.1634,5.1627,5.1725,5.1737,5.1749,5.1915,5.1773,5.1781,5.1785,5.2141,5.2147,5.2153,0,0,0,0,0,0,5.1446,5.1467,5.1638,5.1557,5.1577,5.1592,5.1643,5.1643,5.1673,5.1695,5.1697,5.1663,5.1722,5.1738,5.1847,5.1918,5.1784,5.1792,5.2136,5.2143,5.215,5.2247,0,0,0,0,0,0,5.1439,5.1466,5.1518,5.1558,5.1582,5.1734,5.1647,5.1648,5.1687,5.1679,5.1723,5.1726,5.172,5.1835,5.1855,5.1926,5.1798,5.2129,5.2139,5.2148,5.2238,5.2257,5.2274,0,0,0,0,0,5.1431,5.154,5.1521,5.1542,5.1647,5.1738,5.1752,5.1743,5.1693,5.1746,5.1761,5.1724,5.1907,5.1847,5.1868,5.1943,5.2125,5.2136,5.2147,5.223,5.2253,5.2273,0,0,0,0,0,0,5.1506,5.1545,5.1524,5.1649,5.1691,5.1727,5.1793,5.1768,5.1824,5.1814,5.1801,5.1811,5.1926,5.1945,5.1878,5.208,5.2008,5.2024,5.2064,5.2086,5.2104,5.2097,5.1804,0,0,0,0,0,5.1537,5.1608,5.1638,5.1746,5.1769,5.1778,5.1817,5.1807,5.185,5.1867,5.189,5.1932,5.1999,5.2044,5.2106,5.2241,5.225,5.2303,5.2321,5.2335,5.2349,5.2424,5.2449,5.2189,5.2189,5.2189,0,0,5.1602,5.1633,5.1678,5.1762,5.1793,5.1868,5.1793,5.1874,5.1929,5.1879,5.1984,5.2003,5.2049,5.2172,5.2228,5.2192,5.2423,5.2349,5.2361,5.2367,5.2438,5.2463,5.2485,5.2197,5.2195,5.2194,0,0,5.1759,5.1789,5.1883,5.1917,5.1966,5.1971,5.1994,5.2035,5.2046,5.2152,5.2117,5.2182,5.2297,5.2333,5.2366,5.254,5.251,5.2561,5.2655,5.2728,5.2749,5.2767,5.2831,5.2853,5.2575,5.2575,5.2575,0,5.1834,5.1944,5.1934,5.2019,5.2058,5.2018,5.2114,5.2147,5.2214,5.2242,5.2201,5.2348,5.2376,5.2508,5.2551,5.2578,5.2605,5.2556,5.2746,5.2764,5.2781,5.2842,5.2866,5.2581,5.2581,5.258,5.2579,0,5.2034,5.2112,5.2182,5.225,5.2297,5.2387,5.2391,5.244,5.2427,5.2438,5.2547,5.258,5.265,5.2681,5.2668,5.2812,5.2789,5.2748,5.2675,5.2812,5.2869,5.2892,5.259,5.2588,5.2586,5.2584,0,0,5.2239,5.2303,5.2329,5.236,5.2413,5.2473,5.2562,5.2632,5.2675,5.2723,5.2798,5.2898,5.2862,5.2899,5.2891,5.2955,5.3094,5.2906,5.2907,5.2941,5.3257,5.3289,5.3316,5.3074,5.3078,5.3082,5.3254,0,5.24,5.2556,5.2552,5.2697,5.277,5.2734,5.2812,5.2854,5.2867,5.293,5.2944,5.3016,5.2961,5.2985,5.3047,5.3064,5.3157,5.3051,5.3145,5.3148,5.3135,5.3345,5.3378,5.3539,5.3276,5.328,5.3283,0,5.2608,5.2666,5.2819,5.2864,5.2894,5.2965,5.303,5.3091,5.3138,5.3143,5.3187,5.3169,5.3261,5.3186,5.3313,5.3241,5.3279,5.3294,5.33,5.3308,5.3224,5.3361,5.359,5.3615,5.3317,5.3314,5.3312,0,5.2745,5.286,5.2968,5.2995,5.305,5.3101,5.3125,5.3168,5.3211,5.3268,5.3297,5.3363,5.34,5.3452,5.3453,5.3398,5.3583,5.3507,5.359,5.3591,5.3631,5.3628,5.387,5.3654,5.3654,5.3653,5.3653,0,5.2926,5.3021,5.303,5.3096,5.3203,5.3197,5.3303,5.3323,5.3362,5.3432,5.3405,5.3471,5.3468,5.3536,5.3537,5.3643,5.366,5.3667,5.3667,5.367,5.367,5.3695,5.3685,5.366,5.3658,5.3657,5.3656,0,5.3096,5.3105,5.3221,5.3264,5.3277,5.3354,5.3391,5.3455,5.3466,5.3555,5.3576,5.3594,5.3673,5.3679,5.3769,5.377,5.39,5.3886,5.3885,5.3882,5.3966,5.3959,5.4234,5.427,5.403,5.4032,5.4034,0,5.3211,5.3284,5.3336,5.3382,5.341,5.3483,5.3528,5.3526,5.3574,5.3635,5.3691,5.3768,5.3828,5.3956,5.3977,5.4047,5.4036,5.4128,5.4046,5.4049,5.4039,5.4036,5.4044,5.4143,5.4146,5.4148,5.415,0,5.3415,5.3417,5.3483,5.3552,5.3606,5.366,5.371,5.3749,5.3753,5.3808,5.3889,5.3937,5.4031,5.4108,5.4177,5.4202,5.4178,5.4176,5.4199,5.4204,5.4201,5.4205,5.3929,5.4169,5.4167,5.4166,5.4165,5.4164,5.3562,5.3627,5.3674,5.3749,5.3787,5.3836,5.3898,5.3919,5.3986,5.4063,5.4058,5.4148,5.4195,5.4286,5.4318,5.4388,5.4357,5.4391,5.4399,5.4408,5.4418,5.4189,5.4401,5.44,5.44,5.4399,5.4399,0,5.3766,5.3796,5.3865,5.3937,5.3997,5.397,5.4024,5.4076,5.4156,5.4203,5.4264,5.4359,5.4434,5.4462,5.4536,5.4587,5.4578,5.4607,5.4603,5.461,5.444,5.4413,5.4613,5.4613,5.4613,5.4613,5.4613,5.4613,5.388,5.3988,5.3996,5.4124,5.4152,5.4241,5.4275,5.432,5.4358,5.4465,5.4528,5.4546,5.4586,5.4663,5.4731,5.4738,5.4767,5.4801,5.4803,5.4643,5.4622,5.4601,5.4576,5.4807,5.4807,5.4967,5.4969,5.497]},{"header":{"parameterUnit":"m.s-1","parameterCategory":1,"la1":30.2991,"la2":30.254,"lo1":-89.0895,"lo2":-89.0444,"dx":0.0017,"dy":0.0017,"nx":28,"ny":28,"refTime":"2022-11-15T09:00:00:Z","depth":0,"parameterNumber":3,"parameterNumberName":"V-component_of_WINDS"},"data":[0,0,0,0,0,0,0,0,0,0,0,0,0,0,0,0,0,0,0,0,0,0,0,0,0,0,0,0,0,0,0,0,0,0,0,0,0,0,0,0,0,0,0,0,0,0,0,0,0,0,0,0,0,0,0,0,0,0,-5.8566,-5.8567,0,-5.8686,-5.8687,-5.8688,-5.8672,-5.867,-5.8668,-5.8666,-5.8784,-5.8789,-5.8794,0,0,0,0,0,0,0,0,0,0,0,0,0,-5.8321,-5.8325,-5.8566,-5.8567,-5.8569,-5.8685,-5.8687,-5.8689,-5.8672,-5.867,-5.8667,-5.8665,-5.8783,-5.8789,-5.8795,0,0,0,0,0,0,0,0,0,0,0,0,0,-5.8432,-5.8327,-5.8566,-5.8575,-5.8577,-5.8685,-5.8687,-5.8689,-5.8673,-5.867,-5.8667,-5.8664,-5.8781,-5.8788,-5.8796,-5.8901,0,0,-5.8818,-5.8822,0,0,0,0,0,0,0,0,-5.8426,-5.8441,-5.8572,-5.8574,-5.8577,-5.8661,-5.8644,-5.876,-5.8673,-5.8636,-5.8666,-5.8662,-5.8745,-5.8756,-5.8784,-5.8907,-5.8912,-5.8819,-5.8824,-5.8827,-5.8829,0,0,0,0,0,0,0,-5.8418,-5.8436,-5.8613,-5.8574,-5.8577,-5.8572,-5.8585,-5.8666,-5.8706,-5.8639,-5.8638,-5.8653,-5.8746,-5.8777,-5.8787,-5.8913,-5.8819,-5.8826,-5.883,-5.8833,-5.9129,-5.9133,0,0,0,0,0,0,-5.8409,-5.843,-5.8609,-5.8617,-5.8493,-5.8579,-5.8593,-5.8637,-5.8705,-5.8712,-5.8655,-5.8652,-5.8766,-5.8778,-5.8791,-5.892,-5.8827,-5.8834,-5.8838,-5.9126,-5.913,-5.9134,0,0,0,0,0,0,-5.8403,-5.8425,-5.8604,-5.8523,-5.8546,-5.8586,-5.8636,-5.8641,-5.8672,-5.8717,-5.8724,-5.868,-5.8764,-5.8781,-5.8874,-5.8924,-5.8837,-5.8844,-5.9122,-5.9127,-5.9132,-5.9178,0,0,0,0,0,0,-5.8396,-5.8423,-5.8464,-5.8524,-5.855,-5.8687,-5.8639,-5.8645,-5.8685,-5.8682,-5.8742,-5.8749,-5.8763,-5.8863,-5.8882,-5.8932,-5.885,-5.9118,-5.9124,-5.913,-5.9172,-5.9184,-5.9194,0,0,0,0,0,-5.8388,-5.8471,-5.8466,-5.8488,-5.8602,-5.8689,-5.8704,-5.872,-5.8689,-5.8731,-5.876,-5.8747,-5.8916,-5.8873,-5.8894,-5.8947,-5.9115,-5.9122,-5.913,-5.9167,-5.9181,-5.9194,0,0,0,0,0,0,-5.8414,-5.8479,-5.8474,-5.858,-5.863,-5.8686,-5.8739,-5.8734,-5.8792,-5.8786,-5.8802,-5.8816,-5.8911,-5.8938,-5.889,-5.9054,-5.9011,-5.9023,-5.9032,-5.9046,-5.9057,-5.9048,-5.8856,0,0,0,0,0,-5.8432,-5.8499,-5.8551,-5.8639,-5.8665,-5.8698,-5.8736,-5.8744,-5.8796,-5.8816,-5.8852,-5.8902,-5.8966,-5.9007,-5.9069,-5.9176,-5.9189,-5.9223,-5.9234,-5.9243,-5.9253,-5.9312,-5.9328,-5.9159,-5.9159,-5.9158,0,0,-5.847,-5.8514,-5.8554,-5.8646,-5.8685,-5.8753,-5.8715,-5.8788,-5.8838,-5.8827,-5.8918,-5.8946,-5.9003,-5.9104,-5.915,-5.913,-5.9303,-5.9253,-5.9259,-5.9265,-5.9322,-5.9338,-5.9352,-5.9164,-5.9163,-5.9162,0,0,-5.8574,-5.8614,-5.8692,-5.8733,-5.8794,-5.8815,-5.8834,-5.8893,-5.8912,-5.9004,-5.8997,-5.9056,-5.9166,-5.9207,-5.9242,-5.9364,-5.9354,-5.9383,-5.9439,-5.9497,-5.9511,-5.9523,-5.9566,-5.9581,-5.9393,-5.9393,-5.9393,0,-5.8613,-5.8716,-5.8732,-5.8807,-5.8847,-5.8842,-5.8921,-5.8959,-5.9036,-5.9064,-5.9041,-5.918,-5.9217,-5.9328,-5.9358,-5.9387,-5.9408,-5.9376,-5.9508,-5.952,-5.9531,-5.9572,-5.9589,-5.9396,-5.9396,-5.9396,-5.9395,0,-5.8761,-5.8832,-5.8888,-5.8964,-5.9011,-5.9087,-5.9115,-5.916,-5.9165,-5.9189,-5.9283,-5.9328,-5.9399,-5.9426,-5.943,-5.9538,-5.9524,-5.9504,-5.9461,-5.955,-5.9589,-5.9605,-5.9401,-5.94,-5.9399,-5.9398,0,0,-5.8883,-5.8969,-5.8989,-5.9024,-5.9092,-5.9147,-5.9223,-5.9294,-5.9333,-5.9387,-5.9451,-5.9545,-5.9528,-5.9567,-5.9576,-5.9627,-5.9721,-5.9601,-5.9603,-5.9622,-5.9843,-5.9857,-5.9875,-5.9715,-5.9719,-5.9721,-5.9838,0,-5.8993,-5.9129,-5.9147,-5.9267,-5.9333,-5.933,-5.9396,-5.9444,-5.9469,-5.9529,-5.9555,-5.9622,-5.9594,-5.9619,-5.9669,-5.9699,-5.9765,-5.9691,-5.9774,-5.9777,-5.976,-5.9896,-5.9911,-6.0019,-5.9853,-5.9856,-5.9858,0,-5.9139,-5.9199,-5.9326,-5.9386,-5.9414,-5.9474,-5.9541,-5.9598,-5.9653,-5.9667,-5.9713,-5.9716,-5.9794,-5.9749,-5.9857,-5.9806,-5.9841,-5.9862,-5.9866,-5.9874,-5.9822,-5.9907,-6.0054,-6.007,-5.9882,-5.988,-5.9879,0,-5.9216,-5.9328,-5.9419,-5.9449,-5.9521,-5.9563,-5.9594,-5.9646,-5.9688,-5.9747,-5.9774,-5.984,-5.9877,-5.9928,-5.9948,-5.9913,-6.0055,-6.0012,-6.0069,-6.0069,-6.0098,-6.0096,-6.0253,-6.0122,-6.0122,-6.0121,-6.0121,0,-5.9336,-5.9414,-5.9454,-5.951,-5.9597,-5.9617,-5.9703,-5.9733,-5.9779,-5.9841,-5.9841,-5.9898,-5.9923,-5.9984,-6.0,-6.0087,-6.0103,-6.0117,-6.012,-6.0117,-6.0115,-6.0139,-6.0132,-6.0126,-6.0125,-6.0124,-6.0123,0,-5.9436,-5.9466,-5.9565,-5.9625,-5.9642,-5.9704,-5.9756,-5.9809,-5.9835,-5.9912,-5.9931,-5.997,-6.0042,-6.0068,-6.0155,-6.0166,-6.0267,-6.0264,-6.0249,-6.025,-6.0306,-6.03,-6.0483,-6.0508,-6.0361,-6.0363,-6.0364,0,-5.9511,-5.9571,-5.9639,-5.9681,-5.9714,-5.9781,-5.9825,-5.9847,-5.9892,-5.996,-6.0006,-6.0078,-6.0136,-6.0251,-6.0287,-6.0353,-6.0352,-6.0412,-6.0362,-6.0357,-6.0353,-6.0349,-6.0355,-6.042,-6.0422,-6.0423,-6.0424,0,-5.9641,-5.9653,-5.9716,-5.9785,-5.9837,-5.9892,-5.9945,-5.9979,-6.001,-6.006,-6.0135,-6.018,-6.027,-6.0342,-6.041,-6.0442,-6.0438,-6.044,-6.0457,-6.0453,-6.0442,-6.0449,-6.0274,-6.0435,-6.0434,-6.0433,-6.0433,-6.0432,-5.973,-5.9784,-5.984,-5.9911,-5.9954,-6.0004,-6.0058,-6.0091,-6.0153,-6.0229,-6.0239,-6.0319,-6.0373,-6.0465,-6.05,-6.0562,-6.0546,-6.057,-6.0576,-6.0582,-6.0586,-6.0433,-6.0575,-6.0575,-6.0574,-6.0574,-6.0574,0,-5.986,-5.9897,-5.9961,-6.0037,-6.0093,-6.0086,-6.0145,-6.0192,-6.0263,-6.0314,-6.0373,-6.0458,-6.0528,-6.057,-6.064,-6.0682,-6.0682,-6.0699,-6.0696,-6.0703,-6.0597,-6.0575,-6.0698,-6.0698,-6.0698,-6.0698,-6.0698,-6.0698,-5.9934,-6.0025,-6.0044,-6.0156,-6.0192,-6.0271,-6.0306,-6.0352,-6.0393,-6.049,-6.0548,-6.0575,-6.0623,-6.0697,-6.076,-6.0771,-6.0796,-6.0815,-6.0824,-6.0723,-6.0711,-6.0698,-6.0678,-6.0821,-6.0821,-6.0925,-6.0926,-6.0927]}]]